This demonstration page uses our WeatherBlox Daily Observations layout. Learn more.

Hourly Observations for January 2, 2020

Temp ( °F °C ) Dew Point ( °F °C ) Humidity (%) Winds ( mph kmh ) Pressure ( in mb ) Visibility ( mi km ) Precip ( " mm )
12:15 am 00:15 Clear 37 2.6 33 0.5 86 86 W 9 15 29.5 999 10 16.0934 0 0
12:35 am 00:35 Clear 36 2 32 0.2 88 88 W 8 13 29.5 999 10 16.0934 0 0
12:55 am 00:55 Clear 35 1.8 32 0.1 89 89 W 8 13 29.51 999 10 16.0934 0 0
1:15 am 01:15 Clear 35 1.5 32 0 90 90 W 7 11 29.51 999 10 16.0934 0 0
1:35 am 01:35 Clear 34 1.1 32 0 92 92 W 6 9 29.51 999 10 16.0934 0 0
1:55 am 01:55 Clear 33 0.6 32 -0.2 94 94 W 9 15 29.53 1000 10 16.0934 0 0
2:15 am 02:15 Clear 33 0.4 31 -0.4 94 94 W 9 15 29.53 1000 10 16.0934 0 0
2:35 am 02:35 Clear 32 -0.1 30 -1 94 94 W 7 11 29.54 1000 10 16.0934 0 0
2:55 am 02:55 Clear 31 -0.5 30 -1.2 95 95 W 5 7 29.55 1001 10 16.0934 0 0
3:15 am 03:15 Clear 31 -0.6 30 -1.3 95 95 W 5 7 29.56 1001 10 16.0934 0 0
3:35 am 03:35 Clear 31 -0.3 29 -1.9 89 89 W 6 9 29.55 1001 10 16.0934 0 0
3:55 am 03:55 Clear 31 -0.6 29 -1.8 92 92 WNW 8 13 29.57 1001 10 16.0934 0 0
4:15 am 04:15 Clear 32 0 29 -1.6 89 89 WNW 6 9 29.56 1001 10 16.0934 0 0
4:35 am 04:35 Clear 32 0.2 29 -1.7 87 87 W 7 11 29.57 1001 10 16.0934 0 0
4:55 am 04:55 Clear 32 0 28 -2.1 86 86 WNW 8 13 29.57 1001 10 16.0934 0 0
5:15 am 05:15 Clear 32 -0.2 28 -2.1 87 87 WNW 9 15 29.59 1002 10 16.0934 0 0
5:35 am 05:35 Clear 31 -0.6 28 -2.5 87 87 NW 9 15 29.59 1002 10 16.0934 0 0
5:55 am 05:55 Clear 30 -1.3 27 -2.6 91 91 NW 8 13 29.61 1003 10 16.0934 0 0
6:15 am 06:15 Clear 30 -1.3 27 -2.7 90 90 NW 7 11 29.62 1003 10 16.0934 0 0
6:35 am 06:35 Clear 29 -1.4 27 -2.7 91 91 NW 8 13 29.63 1003 10 16.0934 0 0
6:55 am 06:55 Clear 30 -1 27 -2.6 89 89 NW 9 15 29.64 1004 10 16.0934 0 0
7:15 am 07:15 Clear 30 -1 27 -2.7 88 88 NNW 9 15 29.65 1004 10 16.0934 0 0
7:35 am 07:35 Clear 30 -1.3 27 -3 88 88 NW 9 15 29.66 1004 10 16.0934 0 0
7:55 am 07:55 Clear 29 -1.5 27 -3 90 90 NNW 9 15 29.68 1005 10 16.0934 0 0
8:15 am 08:15 Sunny 29 -1.4 27 -2.9 90 90 NW 9 15 29.7 1006 10 16.0934 0 0
8:35 am 08:35 Sunny 30 -1.2 27 -2.7 90 90 NNW 10 17 29.7 1006 10 16.0934 0 0
8:55 am 08:55 Sunny 30 -1 28 -2.5 90 90 NNW 12 19 29.71 1006 10 16.0934 0 0
9:15 am 09:15 Mostly Cloudy 31 -0.6 29 -1.5 94 94 NNW 13 20 29.72 1006 10 16.0934 0 0
9:35 am 09:35 Cloudy 32 -0.1 30 -0.9 94 94 NNW 9 15 29.72 1007 10 16.0934 0 0
9:55 am 09:55 Cloudy 32 0.2 32 0 99 99 NNW 8 13 29.73 1007 10 16.0934 0 0
10:15 am 10:15 Cloudy 33 0.7 32 0 95 95 NW 7 11 29.75 1007 10 16.0934 0 0
10:35 am 10:35 Mostly Cloudy 35 1.8 34 0.9 94 94 NW 10 17 29.75 1007 10 16.0934 0 0
10:55 am 10:55 Mostly Cloudy 37 2.6 34 1.3 91 91 NNW 9 15 29.74 1007 10 16.0934 0 0
11:15 am 11:15 Cloudy 37 3 35 1.4 89 89 NNW 9 15 29.74 1007 10 16.0934 0 0
11:35 am 11:35 Partly Cloudy 38 3.2 35 1.5 89 89 NNW 7 11 29.73 1007 10 16.0934 0 0
11:55 am 11:55 Sunny 38 3.5 35 1.5 87 87 NNW 8 13 29.73 1007 10 16.0934 0 0
12:15 pm 12:15 Sunny 39 3.7 35 1.6 86 86 NNW 7 11 29.73 1007 10 16.0934 0 0
12:35 pm 12:35 Sunny 39 4 35 1.9 86 86 NNW 10 17 29.72 1006 10 16.0934 0 0
12:55 pm 12:55 Sunny 40 4.3 35 1.7 83 83 N 10 17 29.71 1006 10 16.0934 0 0
1:15 pm 13:15 Sunny 40 4.2 35 1.7 84 84 N 10 17 29.71 1006 10 16.0934 0 0
1:35 pm 13:35 Partly Cloudy 40 4.2 35 1.8 85 85 N 10 17 29.71 1006 10 16.0934 0 0
1:55 pm 13:55 Mostly Cloudy 40 4.5 36 2 84 84 N 10 17 29.71 1006 10 16.0934 0 0
2:15 pm 14:15 Cloudy 39 4.1 35 1.7 85 85 N 6 9 29.72 1006 10 16.0934 0 0
2:35 pm 14:35 Cloudy 39 4.1 36 2 86 86 N 7 11 29.72 1006 10 16.0934 0 0
2:55 pm 14:55 Cloudy 38 3.6 34 1 83 83 N 10 17 29.72 1006 10 16.0934 0 0
3:15 pm 15:15 Cloudy 39 3.7 34 1.2 84 84 N 9 15 29.73 1007 10 16.0934 0 0
3:35 pm 15:35 Cloudy 38 3.3 34 1 85 85 N 8 13 29.75 1008 10 16.0934 0 0
3:55 pm 15:55 Cloudy 38 3.2 33 0.7 84 84 NNW 8 13 29.75 1008 10 16.0934 0 0
4:15 pm 16:15 Cloudy 38 3.1 33 0.6 84 84 N 3 6 29.76 1008 10 16.0934 0 0
4:35 pm 16:35 Cloudy 37 3 33 0.7 85 85 Calm 29.78 1008 10 16.0934 0 0
4:55 pm 16:55 Partly Cloudy 37 2.8 33 0.7 86 86 Calm 29.79 1009 10 16.0934 0 0
5:15 pm 17:15 Sunny 36 2.3 33 0.5 88 88 Calm 29.79 1009 10 16.0934 0 0
5:35 pm 17:35 Clear 35 1.5 33 0.3 92 92 Calm 29.8 1009 10 16.0934 0 0
5:55 pm 17:55 Clear 34 1.2 32 0.2 93 93 Calm 29.81 1010 10 16.0934 0 0
6:15 pm 18:15 Clear 33 0.6 32 0 96 96 Calm 29.83 1010 10 16.0934 0 0
6:35 pm 18:35 Clear 33 0.4 32 0 97 97 Calm 29.84 1011 10 16.0934 0 0
6:55 pm 18:55 Clear 33 0.4 32 0.1 98 98 Calm 29.84 1011 10 16.0934 0 0
7:15 pm 19:15 Clear 31 -0.5 30 -1 96 96 W 3 6 29.85 1011 10 16.0934 0 0
7:35 pm 19:35 Clear 32 0 32 0 100 100 W 3 6 29.85 1011 10 16.0934 0 0
7:55 pm 19:55 Clear 32 0 32 -0.2 99 99 Calm 29.86 1011 10 16.0934 0 0
8:15 pm 20:15 Clear 32 0 32 -0.1 99 99 W 3 6 29.87 1012 10 16.0934 0 0
8:35 pm 20:35 Clear 32 -0.1 31 -0.5 97 97 W 5 7 29.88 1012 10 16.0934 0 0
8:50 pm 20:50 Clear 31 -0.4 31 -0.7 98 98 W 5 7 29.88 1012 10 16.0934 0 0
9:15 pm 21:15 Clear 32 -0.2 31 -0.7 96 96 W 5 7 29.88 1012 10 16.0934 0 0
9:35 pm 21:35 Clear 31 -0.5 30 -1 96 96 W 6 9 29.89 1012 10 16.0934 0 0
9:55 pm 21:55 Clear 31 -0.8 30 -1.3 96 96 W 6 9 29.9 1013 10 16.0934 0 0
10:15 pm 22:15 Clear 32 0.2 32 -0.2 97 97 W 6 9 29.89 1012 10 16.0934 0 0
10:35 pm 22:35 Clear 30 -0.9 29 -1.5 96 96 W 6 9 29.91 1013 10 16.0934 0 0
10:55 pm 22:55 Clear 31 -0.7 30 -1.2 96 96 W 6 9 29.92 1013 10 16.0934 0 0
11:15 pm 23:15 Clear 32 0 31 -0.5 96 96 WSW 3 6 29.91 1013 10 16.0934 0 0
11:35 pm 23:35 Clear 31 -0.4 30 -1 96 96 Calm 29.92 1013 10 16.0934 0 0
11:55 pm 23:55 Clear 32 0 31 -0.8 94 94 SW 3 6 29.91 1013 10 16.0934 0 0

Powered by AerisWeather